Regional Weather Roundup
Issued by NWS Charleston, SC

Home | Current Version | Previous Version | Text Only | Print | Product List | Glossary On
Versions: 1 2 3 4 5 6 7 8 9 10 11 12 13 14 15 16 17 18 19 20 21 22 23 24 25 26 27 28 29 30 31 32 33 34 35 36 37 38 39 40 41 42 43 44 45 46 47 48 49 50
000
ASUS42 KCHS 251313
RWRCHS

REGIONAL WEATHER ROUNDUP
NATIONAL WEATHER SERVICE CHARLESTON SC
900 AM EDT THU AUG 25 2016

NOTE: "FAIR" INDICATES FEW OR NO CLOUDS BELOW 12,000 FEET WITH NO
SIGNIFICANT WEATHER AND/OR OBSTRUCTIONS TO VISIBILITY.

NOT ALL STATIONS ARE QUALITY CONTROLLED. USE DATA WITH CAUTION...
ESPECIALLY DEWPOINT OBSERVATIONS.

SCZ027-030-031-034>040-042>050-251400-
...SOUTHEAST SOUTH CAROLINA...

CITY           SKY/WX    TMP DP  RH WIND       PRES   REMARKS
N CHARLESTON   MOSUNNY   78  65  63 N8        30.16R
WATERFRONT PRK   N/A     76  68  76 N8        30.13R
MOUNT PLEASANT FAIR      77  68  73 CALM      30.16R
JOHNS ISLAND   FAIR      79  70  73 N6        30.16R
PINOPOLIS        N/A     77  68  73 N10       30.10R
MONCKS CORNER  FAIR      77  66  69 N6        30.17R HAZE
SUMMERVILLE    FAIR      72  72 100 N3        30.18R
BEAUFORT MCAS  MOSUNNY   78  69  73 N10       30.16R
BEAUFORT ARPT  FAIR      77  68  73 N9        30.15S
HILTON HEAD IS SUNNY     79  68  69 N12       30.16S
WALTERBORO     SUNNY     77  72  83 N5        30.18S
ALLENDALE      FAIR      77  68  73 CALM      30.18R

...SOUTHERN MIDLANDS AND PEE DEE...

CITY           SKY/WX    TMP DP  RH WIND       PRES   REMARKS
GEORGETOWN     FAIR      73  68  83 N5        30.17S
KINGSTREE      FAIR      73  64  73 CALM      30.18S
ORANGEBURG     SUNNY     77  68  73 CALM      30.19R
BARNWELL       NOT AVBL
AIKEN          FAIR      77  64  65 CALM      30.23S
MANNING        FAIR      70  66  88 N3        30.18S
COLUMBIA       MOSUNNY   77  67  71 CALM      30.18R
SUMTER         SUNNY     77  67  71 CALM      30.16S
FLORENCE       SUNNY     78  66  66 N6        30.18F
MYRTLE BEACH   MOSUNNY   77  63  61 N9        30.18R
N MYRTLE BEACH SUNNY     77  70  79 N7        30.16R

$$

GAZ063-065-086>088-099>101-113>116-118-119-134>141-150-251400-
...SOUTHEAST GEORGIA...

CITY           SKY/WX    TMP DP  RH WIND       PRES   REMARKS
SAVANNAH ARPT  MOSUNNY   77  67  71 N8        30.17R
HUNTER AAF     SUNNY     77  72  84 N8        30.14R
FORT STEWART   SUNNY     76  68  77 N5        30.14R
STATESBORO     SUNNY     76  70  82 NE3       30.18R
SYLVANIA       NOT AVBL
CLAXTON        FAIR      76  70  81 N3        30.17S

...CSRA...CENTRAL AND FAR SOUTHEAST GEORGIA...

CITY           SKY/WX    TMP DP  RH WIND       PRES   REMARKS
THOMSON        SUNNY     77  73  89 MISG      30.24S
AUGUSTA-BUSH   SUNNY     76  69  79 N3        30.18S
AUGUSTA-DANIEL SUNNY     79  67  66 NW5       30.20R
SWAINSBORO     FAIR      77  68  73 NE5       30.19S
VIDALIA        SUNNY     75  72  88 NE5       30.19R
EASTMAN        FAIR      75  71  89 CALM      30.21R
HAZLEHURST     FAIR      76  71  84 CALM      30.17R
ALMA           SUNNY     76  68  76 N5        30.17R
WAYCROSS         N/A     79  73  82 NE5       30.17R
JESUP          FAIR      77  73  88 NE3       30.17R
BAXLEY         FAIR      77  73  88 NE6       30.17R
BRUNSWICK      SUNNY     79  73  83 N5        30.16R
SAINT SIMONS   SUNNY     80  72  76 N9        30.14R

$$

SCZ027-028-034-036>038-045-046-048>050-GAZ119-141-251400-
...LAKE AND SUPPLEMENTAL COASTAL OBSERVATIONS...

STATION/POSITION TIME  TEMP    WIND        PRES    WAVE   SWELL
                       AIR SEA DIR/SP/G            HT/PER HT/PER/DIR
                 (UTC) (F)     (DEG/KT/KT) (MB)    (FT/S) (FT/S/D)
WINYAH BAY       NOT AVBL
LAKE MURRAY      1200   78     270/  1/  5 1021.7R
ACE BASIN NERRS  NOT AVBL
FORT PULASKI     1200   76 86  360/  9/ 14 1020.9R
SAPELO ISLAND    1200   77     360/  8     1020.0R

$$

ANZ835-935-AMZ111-154-330-350-352-354-370-450-454-472-251400-
...C-MAN AND BUOY OBSERVATIONS...

STATION/POSITION TIME  TEMP    WIND        PRES    WAVE   SWELL
                       AIR SEA DIR/SP/G            HT/PER HT/PER/DIR
                 (UTC) (F)     (DEG/KT/KT) (MB)    (FT/S) (FT/S/D)
BUOY 41004       1250   83 83   40/ 12/ 16 1019.6R   3/11   2/ 90/11
BUOY 41008       1250   82 85   60/ 12/ 14 1020.0R   3/ 6   2/120/ 6
FOLLY BEACH CMAN 1300   79     360/  9/ 12 1021.2R
CAPERS NEARSHORE 1208   77 84   20/ 12/ 16 1020.4R
FRIPP NEARSHORE  1208   79 86   20/ 16/ 19 1019.8R


STATION/POSITION TIME  TEMP    WIND        PRES    WAVE   SWELL
                       AIR SEA DIR/SP/G            HT/PER HT/PER/DIR
                 (UTC) (F)     (DEG/KT/KT) (MB)    (FT/S) (FT/S/D)
5E ST. MARYS GA  1201      84                N/A     4/ 7   2/100/12
FRYING PAN BUOY  1200   82 84   60/ 10/ 12 1020.3R
BUOY 41025       1250   81 84   80/ 10/ 12 1021.4R   3/10   2/120/10
CAPE LOOKOUT NC  1300   80      10/  8/ 10 1021.3R
BUOY 41002       1250   81 84   50/ 16/ 19 1019.1R   6/ 7   3/100/ 9
BUOY 41010       NOT AVBL
ST AUGUSTINE FL  1300   81 83   20/ 14/ 15 1020.2R


$$




USA.gov is the U.S. government's official web portal to all federal, state and local government web resources and services.